CYP205 LCLK-LDSP

Flight info

Callsign CYP205
Flight time 2h 41m
Altitude 36000
Route PHA M31 GENOS M42 ALKIS UL609 RDS UL995 XANIS UL613 VJOSA DCT PAPIZ DCT CRAYE DCT GISAM DCT ORAKA
Aircraft A320/M-SDE3FGHIRWY/LB1

Departure

Time 2026-05-04 17:05
Airport Larnaca International Airport (LCLK)

Arrival

Time 2026-05-04 19:47
Airport Split Saint Jerome Airport (LDSP)
Time Latitude Longitude Altitude Speed Heading
2026-05-04 16:53 34.86877 33.60957 20 ft 0 kts 46°
2026-05-04 16:55 34.86822 33.60875 20 ft 3 kts 93°
2026-05-04 16:56 34.86835 33.60839 22 ft 0 kts 136°
2026-05-04 16:56 34.86800 33.60881 20 ft 10 kts 134°
2026-05-04 16:57 34.86737 33.60958 20 ft 16 kts 135°
2026-05-04 16:57 34.86721 33.61091 20 ft 11 kts 40°
2026-05-04 16:58 34.87100 33.61557 20 ft 41 kts 45°
2026-05-04 16:58 34.87313 33.61815 20 ft 43 kts 45°
2026-05-04 16:59 34.87503 33.62167 20 ft 14 kts 75°
2026-05-04 17:00 34.87705 33.62435 21 ft 8 kts 45°
2026-05-04 17:00 34.87842 33.62600 20 ft 24 kts 46°
2026-05-04 17:01 34.88197 33.63044 20 ft 41 kts 46°
2026-05-04 17:01 34.88428 33.63389 22 ft 10 kts 125°
2026-05-04 17:02 34.88410 33.63419 22 ft 0 kts 125°
2026-05-04 17:04 34.88334 33.63503 20 ft 28 kts 169°
2026-05-04 17:05 34.87576 33.62636 22 ft 134 kts 226°
2026-05-04 17:05 34.86013 33.60655 736 ft 171 kts 223°
2026-05-04 17:06 34.84063 33.58723 1878 ft 192 kts 223°
2026-05-04 17:06 34.82998 33.57678 2504 ft 199 kts 225°
2026-05-04 17:07 34.81175 33.55862 3639 ft 208 kts 223°
2026-05-04 17:07 34.80427 33.55110 4129 ft 210 kts 224°
2026-05-04 17:07 34.78919 33.53589 5153 ft 213 kts 223°
2026-05-04 17:07 34.78566 33.53231 5379 ft 213 kts 224°
2026-05-04 17:08 34.77993 33.52651 5755 ft 214 kts 225°
2026-05-04 17:08 34.77241 33.51873 6275 ft 215 kts 225°
2026-05-04 17:09 34.76686 33.51273 6627 ft 215 kts 226°
2026-05-04 17:09 34.75832 33.50321 7192 ft 215 kts 227°
2026-05-04 17:09 34.74880 33.49225 7853 ft 215 kts 228°
2026-05-04 17:10 34.74247 33.48427 8328 ft 214 kts 233°
2026-05-04 17:10 34.72144 33.43793 10591 ft 206 kts 256°
2026-05-04 17:11 34.71853 33.42100 11304 ft 204 kts 264°
2026-05-04 17:11 34.71773 33.40403 12010 ft 202 kts 271°
2026-05-04 17:11 34.71829 33.36621 12504 ft 246 kts 276°
2026-05-04 17:12 34.72294 33.34506 12703 ft 271 kts 287°
2026-05-04 17:12 34.73633 33.29847 13051 ft 316 kts 288°
2026-05-04 17:13 34.75613 33.23076 14312 ft 338 kts 288°
2026-05-04 17:14 34.77265 33.17392 15608 ft 345 kts 288°
2026-05-04 17:14 34.78055 33.14660 16211 ft 348 kts 289°
2026-05-04 17:14 34.79670 33.09053 17413 ft 354 kts 289°
2026-05-04 17:15 34.80484 33.06214 18008 ft 357 kts 289°
2026-05-04 17:15 34.82137 33.00443 19047 ft 364 kts 289°
2026-05-04 17:16 34.83816 32.94572 20074 ft 370 kts 288°
2026-05-04 17:16 34.86380 32.85610 21505 ft 380 kts 289°
2026-05-04 17:17 34.87250 32.82556 21986 ft 382 kts 288°
2026-05-04 17:17 34.89892 32.73249 23293 ft 392 kts 288°
2026-05-04 17:18 34.90789 32.70082 23631 ft 396 kts 288°
2026-05-04 17:18 34.92592 32.63716 24388 ft 399 kts 288°
2026-05-04 17:19 34.94410 32.57276 25032 ft 405 kts 288°
2026-05-04 17:19 34.96250 32.50748 25722 ft 409 kts 288°
2026-05-04 17:20 34.98096 32.44188 26369 ft 413 kts 288°
2026-05-04 17:20 34.99904 32.37744 26645 ft 395 kts 288°
2026-05-04 17:20 35.00801 32.34532 26781 ft 403 kts 288°
2026-05-04 17:21 35.02622 32.27993 27075 ft 415 kts 288°
2026-05-04 17:21 35.04502 32.21273 27605 ft 420 kts 288°
2026-05-04 17:22 35.05447 32.17888 27879 ft 422 kts 288°
2026-05-04 17:22 35.06392 32.14492 28146 ft 423 kts 288°
2026-05-04 17:23 35.09235 32.04246 28883 ft 429 kts 289°
2026-05-04 17:23 35.10191 32.00791 29116 ft 430 kts 288°
2026-05-04 17:23 35.12098 31.93875 29775 ft 429 kts 288°
2026-05-04 17:24 35.13049 31.90424 30075 ft 428 kts 288°
2026-05-04 17:24 35.15883 31.80109 30947 ft 425 kts 288°
2026-05-04 17:25 35.16819 31.76693 31222 ft 424 kts 288°
2026-05-04 17:25 35.18691 31.69856 31790 ft 423 kts 288°
2026-05-04 17:26 35.20551 31.63057 32393 ft 420 kts 288°
2026-05-04 17:26 35.23308 31.52921 33294 ft 416 kts 288°
2026-05-04 17:27 35.25114 31.46242 33858 ft 415 kts 288°
2026-05-04 17:27 35.26929 31.39547 34334 ft 414 kts 288°
2026-05-04 17:28 35.28742 31.32857 34781 ft 413 kts 287°
2026-05-04 17:29 35.31426 31.22866 35374 ft 413 kts 287°
2026-05-04 17:29 35.34116 31.12817 35832 ft 415 kts 287°
2026-05-04 17:31 35.38617 30.95964 35874 ft 416 kts 287°
2026-05-04 17:32 35.43107 30.79023 35868 ft 419 kts 287°
2026-05-04 17:33 35.46686 30.65444 35874 ft 419 kts 287°
2026-05-04 17:34 35.50260 30.51822 35871 ft 419 kts 287°
2026-05-04 17:35 35.54689 30.34811 35875 ft 419 kts 287°
2026-05-04 17:36 35.56465 30.27982 35876 ft 419 kts 287°
2026-05-04 17:36 35.58233 30.21156 35879 ft 419 kts 287°
2026-05-04 17:37 35.59997 30.14342 35875 ft 419 kts 287°
2026-05-04 17:37 35.61746 30.07553 35875 ft 419 kts 287°
2026-05-04 17:38 35.63494 30.00729 35881 ft 417 kts 287°
2026-05-04 17:38 35.65231 29.93925 35877 ft 417 kts 287°
2026-05-04 17:39 35.67840 29.83706 35871 ft 417 kts 287°
2026-05-04 17:39 35.69565 29.76951 35886 ft 416 kts 288°
2026-05-04 17:40 35.71292 29.70149 35888 ft 416 kts 287°
2026-05-04 17:40 35.73010 29.63335 35876 ft 417 kts 287°
2026-05-04 17:41 35.74730 29.56522 35887 ft 416 kts 287°
2026-05-04 17:41 35.76449 29.49719 35886 ft 416 kts 287°
2026-05-04 17:42 35.78162 29.42900 35889 ft 417 kts 287°
2026-05-04 17:42 35.79859 29.36099 35895 ft 418 kts 287°
2026-05-04 17:43 35.81566 29.29259 35905 ft 417 kts 287°
2026-05-04 17:43 35.83268 29.22425 35902 ft 417 kts 288°
2026-05-04 17:44 35.84968 29.15565 35896 ft 419 kts 287°
2026-05-04 17:44 35.86672 29.08684 35906 ft 420 kts 288°
2026-05-04 17:45 35.88376 29.01804 35915 ft 419 kts 287°
2026-05-04 17:45 35.90063 28.94962 35921 ft 420 kts 287°
2026-05-04 17:46 35.91759 28.88051 35925 ft 420 kts 288°
2026-05-04 17:46 35.93453 28.81135 35935 ft 420 kts 288°
2026-05-04 17:47 35.95504 28.74409 35938 ft 419 kts 300°
2026-05-04 17:47 35.98841 28.68501 35942 ft 419 kts 305°
2026-05-04 17:48 36.02263 28.62677 35948 ft 419 kts 305°
2026-05-04 17:48 36.05663 28.56871 35940 ft 420 kts 305°
2026-05-04 17:49 36.09088 28.51009 35964 ft 420 kts 305°
2026-05-04 17:49 36.12519 28.45137 35956 ft 421 kts 305°
2026-05-04 17:50 36.15956 28.39248 35967 ft 422 kts 305°
2026-05-04 17:50 36.19389 28.33368 35979 ft 420 kts 306°
2026-05-04 17:51 36.22791 28.27542 35995 ft 420 kts 306°
2026-05-04 17:51 36.26208 28.21660 35997 ft 420 kts 306°
2026-05-04 17:52 36.29620 28.15764 36012 ft 420 kts 305°
2026-05-04 17:52 36.33026 28.09880 36019 ft 420 kts 305°
2026-05-04 17:53 36.35687 28.03472 35990 ft 423 kts 295°
2026-05-04 17:53 36.38079 27.96796 35988 ft 423 kts 295°
2026-05-04 17:54 36.40491 27.90103 35990 ft 424 kts 295°
2026-05-04 17:54 36.42897 27.83403 36000 ft 425 kts 295°
2026-05-04 17:55 36.45290 27.76687 36006 ft 425 kts 295°
2026-05-04 17:55 36.47668 27.69998 36020 ft 425 kts 295°
2026-05-04 17:56 36.50059 27.63271 36024 ft 426 kts 295°
2026-05-04 17:56 36.52453 27.56523 36026 ft 426 kts 295°
2026-05-04 17:57 36.54841 27.49773 36025 ft 426 kts 295°
2026-05-04 17:57 36.56820 27.44164 36036 ft 426 kts 295°
2026-05-04 17:58 36.59195 27.37407 36039 ft 426 kts 295°
2026-05-04 17:58 36.61556 27.30696 36039 ft 426 kts 295°
2026-05-04 17:59 36.63936 27.23930 36036 ft 426 kts 295°
2026-05-04 18:00 36.67490 27.13775 36046 ft 426 kts 295°
2026-05-04 18:00 36.69852 27.07001 36055 ft 426 kts 295°
2026-05-04 18:01 36.72196 27.00268 36062 ft 426 kts 295°
2026-05-04 18:01 36.74548 26.93470 36062 ft 427 kts 295°
2026-05-04 18:02 36.78068 26.83261 36054 ft 426 kts 295°
2026-05-04 18:02 36.80416 26.76457 36061 ft 426 kts 295°
2026-05-04 18:03 36.82757 26.69657 36065 ft 426 kts 295°
2026-05-04 18:03 36.85077 26.62893 36064 ft 426 kts 295°
2026-05-04 18:04 36.87410 26.56091 36062 ft 426 kts 295°
2026-05-04 18:05 36.90905 26.45871 36069 ft 426 kts 295°
2026-05-04 18:05 36.93224 26.39048 36072 ft 426 kts 295°
2026-05-04 18:06 36.96679 26.28862 36080 ft 426 kts 295°
2026-05-04 18:06 36.98988 26.22043 36080 ft 425 kts 295°
2026-05-04 18:07 37.01304 26.15219 36088 ft 425 kts 295°
2026-05-04 18:07 37.03614 26.08401 36097 ft 425 kts 295°
2026-05-04 18:08 37.05926 26.01573 36087 ft 426 kts 295°
2026-05-04 18:08 37.08235 25.94725 36080 ft 427 kts 295°
2026-05-04 18:09 37.12833 25.81063 36088 ft 427 kts 295°
2026-05-04 18:10 37.15133 25.74190 36102 ft 427 kts 295°
2026-05-04 18:10 37.17429 25.67311 36109 ft 427 kts 295°
2026-05-04 18:11 37.19719 25.60442 36105 ft 426 kts 295°
2026-05-04 18:11 37.21043 25.56475 36116 ft 426 kts 295°
2026-05-04 18:12 37.21863 25.54009 36128 ft 425 kts 295°
2026-05-04 18:12 37.24123 25.47151 36129 ft 425 kts 294°
2026-05-04 18:13 37.26327 25.40267 36129 ft 424 kts 294°
2026-05-04 18:14 37.29437 25.29850 36117 ft 424 kts 291°
2026-05-04 18:14 37.31266 25.22795 36134 ft 424 kts 291°
2026-05-04 18:15 37.34943 25.08786 36123 ft 422 kts 291°
2026-05-04 18:16 37.36819 25.01790 36122 ft 422 kts 291°
2026-05-04 18:16 37.38690 24.94788 36117 ft 421 kts 292°
2026-05-04 18:17 37.41458 24.84342 36125 ft 420 kts 291°
2026-05-04 18:18 37.44224 24.73881 36131 ft 420 kts 291°
2026-05-04 18:18 37.46059 24.66896 36131 ft 420 kts 291°
2026-05-04 18:19 37.48807 24.56415 36135 ft 420 kts 291°
2026-05-04 18:19 37.50620 24.49477 36140 ft 420 kts 291°
2026-05-04 18:20 37.52444 24.42485 36139 ft 420 kts 291°
2026-05-04 18:20 37.54259 24.35494 36127 ft 419 kts 291°
2026-05-04 18:21 37.56585 24.28824 36138 ft 412 kts 306°
2026-05-04 18:21 37.60185 24.23247 36142 ft 410 kts 312°
2026-05-04 18:22 37.63866 24.17809 36147 ft 410 kts 312°
2026-05-04 18:22 37.67558 24.12326 36148 ft 410 kts 312°
2026-05-04 18:23 37.71247 24.06824 36135 ft 410 kts 312°
2026-05-04 18:23 37.74935 24.01325 36144 ft 409 kts 312°
2026-05-04 18:24 37.78595 23.95857 36150 ft 409 kts 312°
2026-05-04 18:24 37.82276 23.90346 36154 ft 410 kts 312°
2026-05-04 18:25 37.85951 23.84831 36154 ft 409 kts 312°
2026-05-04 18:25 37.89417 23.79116 36153 ft 412 kts 302°
2026-05-04 18:26 37.92074 23.72666 36139 ft 413 kts 301°
2026-05-04 18:26 37.94710 23.66214 36149 ft 412 kts 301°
2026-05-04 18:27 37.97333 23.59813 36133 ft 411 kts 301°
2026-05-04 18:27 37.99972 23.53360 36132 ft 411 kts 301°
2026-05-04 18:28 38.02597 23.46924 36131 ft 411 kts 301°
2026-05-04 18:28 38.05220 23.40487 36122 ft 410 kts 301°
2026-05-04 18:29 38.07811 23.34095 36145 ft 409 kts 301°
2026-05-04 18:29 38.10416 23.27661 36144 ft 410 kts 301°
2026-05-04 18:30 38.14326 23.17994 36144 ft 410 kts 301°
2026-05-04 18:31 38.16926 23.11545 36144 ft 410 kts 301°
2026-05-04 18:31 38.19641 23.05232 36133 ft 409 kts 303°
2026-05-04 18:32 38.22456 22.98960 36138 ft 408 kts 303°
2026-05-04 18:32 38.25245 22.92675 36142 ft 408 kts 303°
2026-05-04 18:33 38.27993 22.86377 36139 ft 407 kts 302°
2026-05-04 18:33 38.30731 22.80067 36146 ft 407 kts 302°
2026-05-04 18:34 38.33467 22.73760 36117 ft 406 kts 302°
2026-05-04 18:34 38.36188 22.67489 36129 ft 406 kts 302°
2026-05-04 18:35 38.38918 22.61187 36127 ft 406 kts 302°
2026-05-04 18:35 38.41646 22.54878 36134 ft 406 kts 302°
2026-05-04 18:36 38.44373 22.48552 36137 ft 406 kts 302°
2026-05-04 18:36 38.47078 22.42259 36107 ft 406 kts 302°
2026-05-04 18:37 38.49798 22.35927 36118 ft 406 kts 302°
2026-05-04 18:37 38.52521 22.29594 36122 ft 407 kts 302°
2026-05-04 18:38 38.55239 22.23242 36128 ft 407 kts 302°
2026-05-04 18:38 38.58365 22.17296 36125 ft 401 kts 316°
2026-05-04 18:39 38.62410 22.12453 36108 ft 400 kts 319°
2026-05-04 18:39 38.66499 22.07613 36119 ft 400 kts 319°
2026-05-04 18:40 38.70582 22.02759 36125 ft 400 kts 319°
2026-05-04 18:40 38.74666 21.97898 36129 ft 400 kts 319°
2026-05-04 18:41 38.78742 21.93033 36128 ft 400 kts 319°
2026-05-04 18:41 38.82826 21.88157 36129 ft 401 kts 319°
2026-05-04 18:42 38.86882 21.83307 36126 ft 401 kts 319°
2026-05-04 18:42 38.90968 21.78413 36094 ft 401 kts 319°
2026-05-04 18:43 38.95064 21.73514 36099 ft 402 kts 319°
2026-05-04 18:43 38.99163 21.68607 36101 ft 403 kts 318°
2026-05-04 18:44 39.03251 21.63676 36104 ft 403 kts 318°
2026-05-04 18:44 39.07322 21.58762 36106 ft 404 kts 318°
2026-05-04 18:45 39.11418 21.53808 36116 ft 404 kts 318°
2026-05-04 18:45 39.15525 21.48838 36120 ft 404 kts 319°
2026-05-04 18:46 39.19594 21.43906 36122 ft 404 kts 318°
2026-05-04 18:46 39.23023 21.39743 36122 ft 404 kts 318°
2026-05-04 18:47 39.27090 21.34801 36122 ft 404 kts 318°
2026-05-04 18:47 39.31183 21.29826 36124 ft 404 kts 318°
2026-05-04 18:48 39.35274 21.24843 36123 ft 404 kts 318°
2026-05-04 18:48 39.39329 21.19882 36129 ft 403 kts 318°
2026-05-04 18:49 39.43417 21.14876 36128 ft 404 kts 318°
2026-05-04 18:49 39.47500 21.09879 36095 ft 404 kts 318°
2026-05-04 18:50 39.51560 21.04891 36102 ft 404 kts 318°
2026-05-04 18:50 39.55642 20.99862 36107 ft 405 kts 318°
2026-05-04 18:51 39.59725 20.94832 36109 ft 405 kts 318°
2026-05-04 18:51 39.63810 20.89796 36127 ft 405 kts 318°
2026-05-04 18:52 39.67882 20.84769 36118 ft 406 kts 318°
2026-05-04 18:52 39.71780 20.79453 36087 ft 408 kts 313°
2026-05-04 18:53 39.75464 20.73849 36104 ft 408 kts 313°
2026-05-04 18:53 39.78663 20.68986 36107 ft 407 kts 313°
2026-05-04 18:54 39.81821 20.64184 36115 ft 408 kts 313°
2026-05-04 18:54 39.85507 20.58568 36103 ft 407 kts 313°
2026-05-04 18:55 39.89185 20.52956 36100 ft 407 kts 313°
2026-05-04 18:55 39.94680 20.44556 36089 ft 408 kts 313°
2026-05-04 18:56 39.98350 20.38911 36094 ft 408 kts 312°
2026-05-04 18:56 40.02008 20.33253 36105 ft 408 kts 312°
2026-05-04 18:57 40.05659 20.27585 36110 ft 408 kts 312°
2026-05-04 18:57 40.09305 20.21917 36110 ft 407 kts 312°
2026-05-04 18:58 40.12368 20.17153 36114 ft 407 kts 312°
2026-05-04 18:58 40.15221 20.12711 36090 ft 407 kts 312°
2026-05-04 18:59 40.18867 20.07020 36099 ft 407 kts 312°
2026-05-04 18:59 40.22506 20.01331 36112 ft 407 kts 312°
2026-05-04 19:00 40.26124 19.95673 36111 ft 408 kts 312°
2026-05-04 19:00 40.29769 19.89965 36110 ft 408 kts 312°
2026-05-04 19:01 40.33404 19.84251 36112 ft 408 kts 312°
2026-05-04 19:01 40.37027 19.78518 36098 ft 408 kts 311°
2026-05-04 19:02 40.40632 19.72824 36105 ft 408 kts 311°
2026-05-04 19:02 40.44264 19.67091 36107 ft 408 kts 311°
2026-05-04 19:03 40.47896 19.61349 36113 ft 408 kts 311°
2026-05-04 19:03 40.51507 19.55616 36116 ft 408 kts 311°
2026-05-04 19:04 40.55132 19.49838 36113 ft 412 kts 311°
2026-05-04 19:04 40.58811 19.43973 36107 ft 419 kts 311°
2026-05-04 19:05 40.62523 19.38048 36112 ft 421 kts 311°
2026-05-04 19:05 40.66251 19.32074 36111 ft 422 kts 311°
2026-05-04 19:06 40.69966 19.26111 36111 ft 422 kts 311°
2026-05-04 19:06 40.73683 19.20155 36114 ft 422 kts 311°
2026-05-04 19:07 40.77429 19.14142 36120 ft 422 kts 311°
2026-05-04 19:07 40.81134 19.08175 36116 ft 423 kts 310°
2026-05-04 19:08 40.84865 19.02144 36114 ft 423 kts 310°
2026-05-04 19:08 40.88585 18.96113 36122 ft 423 kts 311°
2026-05-04 19:09 40.92664 18.90522 36118 ft 422 kts 316°
2026-05-04 19:09 40.96793 18.85036 36117 ft 423 kts 316°
2026-05-04 19:10 41.00935 18.79526 36124 ft 423 kts 316°
2026-05-04 19:10 41.05070 18.74001 36119 ft 423 kts 315°
2026-05-04 19:11 41.09219 18.68440 36118 ft 423 kts 315°
2026-05-04 19:11 41.13359 18.62895 36125 ft 423 kts 315°
2026-05-04 19:12 41.19547 18.54597 36132 ft 423 kts 315°
2026-05-04 19:13 41.23690 18.49004 36126 ft 423 kts 315°
2026-05-04 19:13 41.27810 18.43439 36133 ft 423 kts 315°
2026-05-04 19:14 41.31946 18.37849 36105 ft 423 kts 315°
2026-05-04 19:14 41.36054 18.32284 36115 ft 424 kts 315°
2026-05-04 19:15 41.40196 18.26654 36128 ft 424 kts 315°
2026-05-04 19:15 41.44338 18.21027 36135 ft 425 kts 315°
2026-05-04 19:16 41.48459 18.15426 36135 ft 425 kts 315°
2026-05-04 19:16 41.53053 18.10476 36134 ft 424 kts 326°
2026-05-04 19:17 41.57962 18.06147 36138 ft 424 kts 326°
2026-05-04 19:17 41.62888 18.01783 36136 ft 424 kts 326°
2026-05-04 19:18 41.67774 17.97412 36134 ft 424 kts 326°
2026-05-04 19:18 41.69982 17.95433 36127 ft 424 kts 326°
2026-05-04 19:19 41.72182 17.93468 36134 ft 424 kts 326°
2026-05-04 19:19 41.77105 17.89082 36134 ft 424 kts 326°
2026-05-04 19:20 41.81993 17.84720 36135 ft 424 kts 326°
2026-05-04 19:20 41.86918 17.80309 36138 ft 425 kts 326°
2026-05-04 19:21 41.91830 17.75907 36126 ft 425 kts 326°
2026-05-04 19:21 41.96748 17.71505 36110 ft 426 kts 326°
2026-05-04 19:22 42.01696 17.67087 36118 ft 426 kts 326°
2026-05-04 19:22 42.06612 17.62683 36118 ft 427 kts 326°
2026-05-04 19:23 42.11567 17.58239 36110 ft 427 kts 326°
2026-05-04 19:23 42.16509 17.53795 36127 ft 428 kts 326°
2026-05-04 19:24 42.21459 17.49326 36112 ft 428 kts 326°
2026-05-04 19:24 42.26393 17.44866 36130 ft 428 kts 326°
2026-05-04 19:25 42.31355 17.40377 36132 ft 428 kts 326°
2026-05-04 19:25 42.36294 17.35903 36109 ft 429 kts 325°
2026-05-04 19:26 42.41248 17.31403 36101 ft 429 kts 325°
2026-05-04 19:26 42.46184 17.26918 36114 ft 429 kts 325°
2026-05-04 19:27 42.51153 17.22389 36112 ft 429 kts 325°
2026-05-04 19:27 42.56087 17.17873 36109 ft 430 kts 325°
2026-05-04 19:28 42.61064 17.13305 36117 ft 431 kts 325°
2026-05-04 19:28 42.66017 17.08750 36111 ft 431 kts 325°
2026-05-04 19:29 42.70997 17.04182 36113 ft 431 kts 324°
2026-05-04 19:29 42.75976 16.99589 36123 ft 432 kts 325°
2026-05-04 19:30 42.80937 16.94997 36119 ft 433 kts 325°
2026-05-04 19:30 42.85898 16.90397 36106 ft 433 kts 325°
2026-05-04 19:31 42.90886 16.85755 36120 ft 433 kts 325°
2026-05-04 19:31 42.95823 16.81167 35557 ft 427 kts 325°
2026-05-04 19:31 42.98300 16.78863 34521 ft 431 kts 325°
2026-05-04 19:32 43.00801 16.76535 33405 ft 435 kts 325°
2026-05-04 19:32 43.03275 16.74223 32258 ft 438 kts 325°
2026-05-04 19:32 43.05806 16.71856 31068 ft 441 kts 325°
2026-05-04 19:32 43.08362 16.69464 29825 ft 445 kts 325°
2026-05-04 19:33 43.10935 16.67051 28419 ft 450 kts 325°
2026-05-04 19:33 43.13482 16.64659 27273 ft 449 kts 325°
2026-05-04 19:33 43.16067 16.62227 26210 ft 448 kts 325°
2026-05-04 19:33 43.18635 16.59811 25288 ft 445 kts 326°
2026-05-04 19:34 43.21158 16.57385 24427 ft 441 kts 322°
2026-05-04 19:34 43.23312 16.54417 23624 ft 439 kts 309°
2026-05-04 19:34 43.24525 16.52191 22989 ft 437 kts 307°
2026-05-04 19:34 43.26890 16.47781 22313 ft 423 kts 307°
2026-05-04 19:35 43.28598 16.44584 22170 ft 406 kts 307°
2026-05-04 19:35 43.30234 16.41516 22042 ft 391 kts 307°
2026-05-04 19:35 43.31285 16.39544 21956 ft 382 kts 307°
2026-05-04 19:35 43.33331 16.35703 21777 ft 364 kts 307°
2026-05-04 19:36 43.34310 16.33865 21687 ft 355 kts 306°
2026-05-04 19:36 43.35749 16.31166 21461 ft 346 kts 306°
2026-05-04 19:36 43.37166 16.28506 21076 ft 342 kts 306°
2026-05-04 19:36 43.38568 16.25874 20661 ft 340 kts 306°
2026-05-04 19:37 43.39962 16.23255 20247 ft 338 kts 306°
2026-05-04 19:37 43.41353 16.20636 19840 ft 337 kts 306°
2026-05-04 19:37 43.42717 16.18065 19427 ft 335 kts 306°
2026-05-04 19:37 43.44120 16.15436 18736 ft 343 kts 306°
2026-05-04 19:38 43.45553 16.12790 18065 ft 349 kts 306°
2026-05-04 19:38 43.47020 16.10096 17349 ft 354 kts 306°
2026-05-04 19:38 43.48514 16.07385 16651 ft 359 kts 306°
2026-05-04 19:38 43.50039 16.04612 15966 ft 363 kts 303°
2026-05-04 19:39 43.51132 16.01472 15289 ft 364 kts 283°
2026-05-04 19:39 43.51336 15.98030 14637 ft 364 kts 262°
2026-05-04 19:39 43.50639 15.94725 13995 ft 363 kts 242°
2026-05-04 19:39 43.49139 15.91953 13295 ft 362 kts 225°
2026-05-04 19:40 43.47150 15.89816 12580 ft 361 kts 206°
2026-05-04 19:40 43.44794 15.88804 11898 ft 360 kts 186°
2026-05-04 19:40 43.42283 15.89037 11221 ft 359 kts 165°
2026-05-04 19:40 43.40053 15.90476 10571 ft 359 kts 144°
2026-05-04 19:41 43.38334 15.92951 9923 ft 359 kts 123°
2026-05-04 19:41 43.37390 15.96099 9215 ft 359 kts 102°
2026-05-04 19:41 43.37342 15.99522 8515 ft 358 kts 81°
2026-05-04 19:41 43.38202 16.02716 7840 ft 357 kts 58°
2026-05-04 19:42 43.39632 16.05360 7096 ft 335 kts 51°
2026-05-04 19:42 43.41090 16.07754 6051 ft 317 kts 49°
2026-05-04 19:42 43.42559 16.10004 5440 ft 313 kts 46°
2026-05-04 19:42 43.43992 16.12019 4899 ft 286 kts 44°
2026-05-04 19:43 43.45364 16.13871 4282 ft 265 kts 43°
2026-05-04 19:43 43.46654 16.15660 3405 ft 260 kts 47°
2026-05-04 19:43 43.47005 16.16192 3195 ft 256 kts 47°
2026-05-04 19:44 43.47213 16.16511 3063 ft 255 kts 47°
2026-05-04 19:44 43.48337 16.18360 2315 ft 246 kts 55°
2026-05-04 19:45 43.49199 16.20229 1825 ft 220 kts 60°
2026-05-04 19:45 43.49909 16.21977 1409 ft 201 kts 60°
2026-05-04 19:45 43.50578 16.23479 1315 ft 168 kts 56°
2026-05-04 19:45 43.51239 16.24775 1004 ft 163 kts 55°
2026-05-04 19:46 43.51843 16.26015 716 ft 155 kts 55°
2026-05-04 19:46 43.52462 16.27246 359 ft 153 kts 51°
2026-05-04 19:46 43.53102 16.28369 155 ft 146 kts 52°
2026-05-04 19:46 43.53665 16.29380 82 ft 100 kts 53°
2026-05-04 19:47 43.53869 16.29741 78 ft 23 kts 52°
2026-05-04 19:47 43.53953 16.29887 77 ft 19 kts 50°
2026-05-04 19:47 43.54006 16.29972 75 ft 7 kts 49°
2026-05-04 19:47 43.54038 16.30033 74 ft 8 kts 68°
2026-05-04 19:48 43.54044 16.30064 73 ft 0 kts 77°